Stations météo

réclame
Mon MeteoGroup
Bierset/Liege, Belgique (6478): Température de l'air & dewpoint: 18.10.2017 07:00:00 - 24.10.2017 07:00:00 (CEST)Bierset/Liege, Belgique (6478): Vitesse du vent & gusts: 18.10.2017 07:00:00 - 24.10.2017 07:00:00 (CEST)Bierset/Liege, Belgique (6478): Direction du vent: 18.10.2017 07:00:00 - 24.10.2017 07:00:00 (CEST)Bierset/Liege, Belgique (6478): reduced air pressure: 18.10.2017 07:00:00 - 24.10.2017 07:00:00 (CEST)Bierset/Liege, Belgique (6478): visibility: 18.10.2017 07:00:00 - 24.10.2017 07:00:00 (CEST)
Date & Time tt [°C] td [°C] ff [km/h] ff [knt] fx [km/h] fx [knt] dd ppp [hPa] vv [km]
24.10.2017 07:00:00 12,2 11,4 16 9 32 18 SSW 1021,9 10
24.10.2017 06:00:00 12,2 11,4 16 9 36 19 S 1021,7 10
24.10.2017 05:00:00 11,9 11,1 18 10 - - SSW 1021,7 2,5
24.10.2017 04:00:00 11,8 11,0 18 10 32 18 SSW 1022,0 2,5
24.10.2017 03:00:00 11,7 10,9 16 9 29 16 SSW 1022,0 2,9
24.10.2017 02:00:00 11,5 10,7 18 10 - - SSW 1022,1 3,8
24.10.2017 01:00:00 11,4 10,6 16 9 36 19 S 1022,2 5
24.10.2017 00:00:00 11,4 10,6 18 10 25 14 SSW 1022,2 3,8
23.10.2017 23:00:00 11,2 10,4 15 8 - - SSW 1022,4 2,3
23.10.2017 22:00:00 11,1 10,3 16 9 29 16 SSW 1022,2 3,0
23.10.2017 21:00:00 11,1 10,3 18 10 32 18 SSW 1022,0 2,7
23.10.2017 20:00:00 11,1 10,4 16 9 - - SSW 1022,0 2,6
23.10.2017 19:00:00 11,9 8,8 21 11 29 16 SW 1021,5 10
23.10.2017 18:00:00 12,5 8,8 15 8 22 12 SW 1021,1 10
23.10.2017 17:00:00 12,6 8,6 15 8 - - WSW 1021,0 10
23.10.2017 16:00:00 12,5 8,2 18 10 36 19 WSW 1020,9 10
23.10.2017 15:00:00 13,0 8,1 21 11 32 18 WSW 1020,7 10
23.10.2017 14:00:00 12,7 7,8 24 13 - - WSW 1020,6 10
23.10.2017 13:00:00 12,1 7,7 21 11 32 18 W 1020,5 10
23.10.2017 12:00:00 11,6 7,4 24 13 32 18 WSW 1020,2 10
23.10.2017 11:00:00 9,9 8,0 21 11 - - WSW 1020,4 10
23.10.2017 10:00:00 8,9 5,4 22 12 29 16 SW 1020,0 10
23.10.2017 09:00:00 8,9 6,6 18 10 29 16 WSW 1019,7 10
23.10.2017 08:00:00 8,8 6,9 21 11 - - WSW 1019,5 10
23.10.2017 07:00:00 9,0 5,4 22 12 32 18 WSW 1019,3 10
23.10.2017 06:00:00 8,7 6,9 22 12 32 18 WSW 1019,0 10
23.10.2017 05:00:00 8,6 5,0 16 9 - - WSW 1018,5 10
23.10.2017 04:00:00 8,7 7,6 18 10 32 18 WSW 1018,3 10
23.10.2017 03:00:00 8,4 4,8 16 9 25 14 WSW 1018,1 10
23.10.2017 02:00:00 8,3 4,5 21 11 - - WSW 1018,0 10
23.10.2017 01:00:00 8,3 4,3 21 11 29 16 SW 1018,0 10
23.10.2017 00:00:00 8,1 3,5 16 9 25 14 SW 1017,7 10
22.10.2017 23:00:00 7,9 7,6 18 10 - - SW 1017,4 10
22.10.2017 22:00:00 7,3 4,1 16 9 29 16 SW 1017,1 10
22.10.2017 21:00:00 8,3 5,4 21 11 29 16 WSW 1016,7 10
22.10.2017 20:00:00 8,9 5,4 21 11 - - WSW 1016,0 10
22.10.2017 19:00:00 9,2 5,5 22 12 32 18 WSW 1015,5 10
22.10.2017 18:00:00 9,6 7,7 21 11 32 18 WSW 1014,9 10
22.10.2017 17:00:00 10,2 6,5 21 11 - - W 1014,5 10
22.10.2017 16:00:00 10,7 6,6 28 15 50 27 WSW 1013,8 10
22.10.2017 15:00:00 11,5 7,6 29 16 43 23 WSW 1013,3 10
22.10.2017 14:00:00 10,7 7,3 26 14 - - WSW 1013,2 10
22.10.2017 13:00:00 10,0 8,0 29 16 - - WSW - 10
22.10.2017 12:00:00 9,4 7,0 26 14 43 23 SW 1012,8 10
22.10.2017 11:00:00 8,5 6,5 29 16 - - SW 1012,5 5
22.10.2017 10:00:00 8,4 6,5 29 16 50 27 SW 1012,3 5
22.10.2017 09:00:00 9,0 6,0 31 17 - - SSW - 10
22.10.2017 08:00:00 9,0 7,0 35 19 - - SSW - 10
22.10.2017 07:00:00 8,6 6,9 31 17 54 29 SSW 1011,3 10
22.10.2017 06:00:00 8,7 6,5 34 18 54 29 SSW 1010,8 6
22.10.2017 05:00:00 9,3 6,5 35 19 - - SSW 1011,0 8
22.10.2017 04:00:00 10,4 5,3 35 19 50 27 SSW 1011,3 10
22.10.2017 03:00:00 9,8 5,4 31 17 47 25 SSW 1011,5 10
22.10.2017 02:00:00 10,0 5,5 24 13 - - SSW 1011,9 10
22.10.2017 01:00:00 10,7 5,8 29 16 47 25 SSW 1012,1 10
22.10.2017 00:00:00 11,3 6,3 31 17 43 23 SSW 1012,1 10
21.10.2017 23:00:00 11,6 6,5 26 14 - - SSW 1012,2 10
21.10.2017 22:00:00 12,0 8,0 21 11 43 23 SSW 1012,0 10
21.10.2017 21:00:00 12,4 8,4 21 11 36 19 S 1011,7 10
21.10.2017 20:00:00 12,8 7,9 21 11 - - S 1011,6 10
21.10.2017 19:00:00 13,5 8,3 22 12 40 21 SSW 1011,4 10
21.10.2017 18:00:00 14,5 8,8 22 12 32 18 SSW 1011,2 10
21.10.2017 17:00:00 14,9 9,6 22 12 - - SSW 1011,4 10
21.10.2017 16:00:00 13,7 9,3 22 12 47 25 SSW 1011,4 10
21.10.2017 15:00:00 15,5 8,8 29 16 54 29 SW 1011,5 10
21.10.2017 14:00:00 15,7 10,3 31 17 - - SW 1011,5 10
21.10.2017 13:00:00 15,5 11,4 28 15 47 25 SSW 1011,3 10
21.10.2017 12:00:00 15,4 12,4 26 14 36 19 SSW 1011,5 10
21.10.2017 11:00:00 14,2 11,9 22 12 - - SSW 1011,3 10
21.10.2017 10:00:00 13,6 13,2 26 14 36 19 S 1011,0 10
21.10.2017 09:00:00 12,8 11,9 24 13 40 21 S 1010,9 10
21.10.2017 08:00:00 12,3 8,6 26 14 - - S 1011,0 10
21.10.2017 07:00:00 11,7 8,1 26 14 43 23 S 1011,1 10
21.10.2017 06:00:00 12,0 7,5 28 15 43 23 S 1011,3 10
21.10.2017 05:00:00 11,4 6,5 22 12 - - S 1012,0 10
21.10.2017 04:00:00 11,7 7,0 18 10 36 19 S 1013,0 10
21.10.2017 03:00:00 11,3 6,4 21 11 36 19 S 1013,5 10
21.10.2017 02:00:00 11,1 6,1 16 9 - - S 1013,9 10
21.10.2017 01:00:00 11,4 6,3 16 9 29 16 S 1014,0 10
21.10.2017 00:00:00 11,4 6,3 16 9 25 14 SSW 1014,5 10
20.10.2017 23:00:00 11,3 6,1 16 9 - - SSW 1014,6 10
20.10.2017 22:00:00 11,7 6,2 16 9 32 18 SSW 1014,6 10
20.10.2017 21:00:00 11,6 5,7 21 11 36 19 SSW 1014,5 10
20.10.2017 20:00:00 12,2 5,3 24 13 - - SSW 1014,1 10
20.10.2017 19:00:00 12,8 5,9 22 12 43 23 SSW 1013,5 10
20.10.2017 18:00:00 12,9 6,7 26 14 50 27 SW 1013,1 10
20.10.2017 17:00:00 13,3 6,8 34 18 - - SW 1012,7 10
20.10.2017 16:00:00 13,5 7,7 34 18 50 27 SW 1012,2 10
20.10.2017 15:00:00 12,3 7,8 28 15 54 29 WSW 1012,1 8
20.10.2017 14:00:00 14,7 7,3 37 20 - - SW 1011,1 10
20.10.2017 13:00:00 14,0 7,1 35 19 54 29 SSW 1011,0 10
20.10.2017 12:00:00 13,5 7,5 35 19 58 31 SW 1011,0 10
20.10.2017 11:00:00 12,8 8,6 31 17 - - SW 1010,2 10
20.10.2017 10:00:00 12,6 9,6 31 17 47 25 SSW 1009,4 10
20.10.2017 09:00:00 12,8 10,2 28 15 54 29 SW 1008,3 10
20.10.2017 08:00:00 14,4 11,1 24 13 - - S 1007,1 10
20.10.2017 07:00:00 15,2 10,3 22 12 40 21 S 1006,9 10
20.10.2017 06:00:00 15,2 10,1 22 12 40 21 S 1007,3 10
20.10.2017 05:00:00 15,6 9,6 18 10 - - S 1007,9 10
20.10.2017 04:00:00 16,4 9,6 16 9 29 16 S 1008,2 10
20.10.2017 03:00:00 15,9 9,3 18 10 29 16 S 1008,3 10
20.10.2017 02:00:00 16,3 9,4 18 10 - - S 1008,7 10
20.10.2017 01:00:00 16,6 9,9 13 7 29 16 S 1008,6 10
20.10.2017 00:00:00 16,8 10,5 15 8 25 14 S 1008,5 10
19.10.2017 23:00:00 16,4 10,6 13 7 - - SSE 1008,7 10
19.10.2017 22:00:00 16,7 10,7 15 8 22 12 SSE 1008,8 10
19.10.2017 21:00:00 17,0 10,9 13 7 29 16 SE 1009,0 10
19.10.2017 20:00:00 18,3 11,1 11 6 - - SSE 1009,0 10
19.10.2017 19:00:00 19,5 11,5 13 7 22 12 S 1008,9 10
19.10.2017 18:00:00 20,1 11,7 13 7 25 14 SSE 1008,4 10
19.10.2017 17:00:00 20,5 12,0 15 8 - - SSE 1008,6 10
19.10.2017 16:00:00 20,8 12,1 22 12 40 21 S 1008,9 10
19.10.2017 15:00:00 20,2 12,0 21 11 32 18 S 1009,1 10
19.10.2017 14:00:00 18,8 11,4 16 9 - - S 1010,0 10
19.10.2017 13:00:00 18,1 11,7 22 12 36 19 S 1010,7 10
19.10.2017 12:00:00 16,6 12,1 13 7 29 16 SSE 1011,2 10
19.10.2017 11:00:00 14,8 10,6 11 6 - - SSE 1011,6 10
19.10.2017 10:00:00 14,0 10,5 11 6 29 16 SSE 1011,9 10
19.10.2017 09:00:00 12,7 8,7 15 8 29 16 SE 1011,6 10
19.10.2017 08:00:00 12,0 8,0 18 10 - - SE - 10
19.10.2017 07:00:00 12,9 8,7 16 9 29 16 SE 1011,3 10
19.10.2017 06:00:00 13,3 8,7 16 9 36 19 SE 1011,8 10
19.10.2017 05:00:00 13,1 8,7 15 8 - - SE 1012,1 10
19.10.2017 04:00:00 14,1 9,3 13 7 36 19 SSE 1012,4 10
19.10.2017 03:00:00 14,1 9,2 13 7 22 12 SSE 1012,6 10
19.10.2017 02:00:00 14,6 9,5 11 6 - - SSE 1012,8 10
19.10.2017 01:00:00 15,6 10,0 13 7 32 18 SSE 1013,0 10
19.10.2017 00:00:00 15,3 10,5 9 5 29 16 S 1013,1 10
18.10.2017 23:00:00 15,6 10,5 11 6 - - SSE 1012,9 10
18.10.2017 22:00:00 15,9 10,5 11 6 22 12 SSE 1012,9 10
18.10.2017 21:00:00 16,5 10,7 11 6 25 14 S 1012,9 10
18.10.2017 20:00:00 17,3 11,0 9 5 - - S 1012,6 10
18.10.2017 19:00:00 18,3 11,2 9 5 25 14 S 1012,5 10
18.10.2017 18:00:00 18,6 12,2 13 7 22 12 SW 1012,4 10
18.10.2017 17:00:00 20,0 12,0 15 8 - - SSW 1012,3 10
18.10.2017 16:00:00 20,6 12,4 16 9 32 18 SW 1012,3 10
18.10.2017 15:00:00 20,7 12,4 18 10 29 16 SSW 1012,5 10
18.10.2017 14:00:00 19,7 12,0 11 6 - - S 1012,9 10
18.10.2017 13:00:00 18,7 11,1 18 10 40 21 SSW 1013,5 10
18.10.2017 12:00:00 16,6 9,6 18 10 36 19 S 1013,8 10
18.10.2017 11:00:00 15,2 8,5 11 6 - - S 1014,0 10
18.10.2017 10:00:00 13,2 13,2 16 9 36 19 SSE 1014,1 10
18.10.2017 09:00:00 11,8 8,4 15 8 22 12 SSE 1014,1 10
18.10.2017 08:00:00 12,5 8,7 15 8 - - SSE 1014,1 10
18.10.2017 07:00:00 12,0 8,6 4 2 25 14 - 1014,3 10

tt = Température de l'air
td = dewpoint
ff = Vitesse du vent
fx = gusts
dd = Direction du vent
ppp = reduced air pressure
vv = visibility

stations d'obs. à proximité